Location: Unspecified
(0.0000°N, 0.0000°E)
Time: 19:50:39
(UTC+00:00)

Envisat - Pass Details

Date: 03 June 2023
Orbit: 763 x 765 km, 98.2° (Epoch: 05 June)

Event Time Altitude Azimuth Distance (km) Brightness Sun altitude
Rises 04:19:42 0° 345° (NNW) 3,211 6.3 -22.7°
Reaches altitude 10° 04:22:33 10° 328° (NNW) 2,289 5.4 -22.0°
Enters shadow 04:24:03 16° 313° (NW) 1,930 4.8 -21.7°
